OBJECT L, 61904

Orbit data source: Space-Track

You're viewing an Uncataloged Satellite

Recently launched and/or uncataloged satellites may have evolving metadata. Metadata may include but not limited to: Owner, Maufacturer, Bus, Motor, and Mission.

OBJECT L, 61904 is a satellite owned by Yunyao yuhang (CN) in SSO that was launched on Mon, 11 Nov 2024 UTC via a LIJIAN-1 launch vehicle from the Jiuquan Satellite Launch Center, China (JSC). Unknown objects in Earth's orbit typically refer to objects detected orbiting the Earth but have not yet been identified or cataloged. These objects could be anything from previously untracked satellites, spent rocket stages, debris from satellite collisions, or even natural meteoroids temporarily captured by Earth's gravity.

Loading next visibility...
OBJECT L details
Identifier
61904, 2024-205L
Orbit
SSO
Last TLE update4 hours ago
Origin
Flag of CNYunyao yuhang (CN / PRC)
ManufacturerYunyao yuhang
MissionOperational spacecraft
Bus & MotorYY-1, Unknown motor
Mass~50 kg wet, ~50 kg dry
Launch date (UTC)
2024-11-11 (1 week ago)
Launch vehicle
LIJIAN-1
Launch site
Jiuquan Satellite Launch Center, China (JSC)
Object typeUnknown
Shape & HBRUnknown
Radar Cross SectionMedium (>0.1 m² and <1 m²)

Expand to show TLE details & history

TLE from 4 hours ago
0 OBJECT L
1 61904U 24205L   24326.19236170  .00019287  00000-0  10359-2 0  9996
2 61904  97.4743  38.2003 0013904 248.4986 136.4638 15.14874014  1489
Epoch: 2024-11-21T04:37Z
Definitive object data (Epoch: 2024-11-21T04:37:00.05Z)
Latitude24.87385°
Longitude-95.19562°
Altitude531.475 km
Speed7.595 km/s
True Right ascension02h 18m 55s
True Declination24° 44' 19"
Sunlit
Object was in full shadow at TLE epoch
Visualization TLE readout
Latitude-59.19798°
Longitude75.79907°
Altitude534.742 km
Speed7.599 km/s
Apparent Right ascension16h 06m 26s
Apparent Declination-53° 47' 36"
Sunlit
Object is in daylight
Visualization observer readout
Local Sidereal Time05:46:55
Azimuth137.711° SSE
Elevation-68.119°
Doppler factor1
Orbital elements
Apogee altitude527.926 km
Perigee altitude508.748 km
Semi-major axis6,896.474 km
Eccentricity0.0013904
Inclination97.4743°
RAAN38.2003°
Arg. of periapsis248.4986°
True anomaly136.57341°
Mean anomaly136.4638°
Eccentric anomaly136.51862°
Mean motion3.78968 °/min
BSTAR0.0010359
Orbital period94.99 mins
Loading maneuver chart data...
Loading historical data...
Loading historical data...
Loading historical data...
Loading historical data...
Loading historical data...
Loading historical data...
Loading historical data...

OBJECT L Visibility forecast

Observer location: undefined°, undefined

Span
Click to sort rows by Start time (UTC) header in descending order
Start Az.
Max El. time (UTC)
Max El. Az.
Max El.
End time (UTC)
End Az.
7 mins2024-11-21 17:45:00.383Z16.949° NNE2024-11-21 17:48:00.383Z56.923° ENE42.361°2024-11-21 17:52:00.383Z186.359° SSW
5 mins2024-11-22 04:26:00.383Z123.004° SE2024-11-22 04:28:00.383Z80.533° E26.231°2024-11-22 04:31:00.383Z15.315° NNE
4 mins2024-11-22 06:01:00.383Z238.596° WSW2024-11-22 06:02:00.383Z256.607° W16.2°2024-11-22 06:05:00.383Z308.273° NW
|